Regional Weather Roundup
Issued by NWS

Home | Current Version | Previous Version | Text Only | Print | Product List | Glossary On
Versions: 1 2 3 4 5 6 7 8 9 10 11 12 13 14 15 16 17 18 19 20 21 22 23 24 25 26 27 28 29 30 31 32 33 34 35 36 37 38 39 40 41 42 43 44 45 46 47 48 49 50
000
ASUS43 KBIS 270210
RWRND

NORTH DAKOTA REGIONAL WEATHER ROUNDUP
NATIONAL WEATHER SERVICE BISMARCK ND
900 PM CDT WED JUL 26 2017

NOTE: "FAIR" INDICATES FEW OR NO CLOUDS BELOW 12,000 FEET WITH NO
SIGNIFICANT WEATHER AND/OR OBSTRUCTIONS TO VISIBILITY.


NDZ001>003-009>011-017-270300-
NORTHWEST NORTH DAKOTA

CITY           SKY/WX    TMP DP  RH WIND       PRES   REMARKS
WILLISTON      CLEAR     86  48  26 E9        30.05S
MINOT          CLEAR     76  55  48 NE6       30.10S
MINOT AFB      CLEAR     77  54  44 E7        30.09S
$$

NDZ018>021-031>035-040>046-270300-
SOUTHWEST NORTH DAKOTA

CITY           SKY/WX    TMP DP  RH WIND       PRES   REMARKS
BISMARCK       CLEAR     79  52  38 E8        30.09S
DICKINSON      PTCLDY    77  55  46 E9        30.08R
GARRISON         N/A     77  53  43 E8        30.10S
HETTINGER ARPT CLEAR     81  51  35 SE13      30.10S
$$

NDZ004>008-012>016-024-026-027-054-270300-
NORTHEAST NORTH DAKOTA

CITY           SKY/WX    TMP DP  RH WIND       PRES   REMARKS
GRAND FORKS    PTCLDY    73  63  70 NW3       30.06R
GRND FRKS AFB  CLEAR     70  61  73 N3        30.07S
DEVILS LAKE    CLEAR     73  58  59 NE3       30.12R
$$

NDZ022-023-025-028>030-036>039-047>053-270300-
SOUTHEAST NORTH DAKOTA

CITY           SKY/WX    TMP DP  RH WIND       PRES   REMARKS
FARGO          CLEAR     73  61  65 N6        30.05S
JAMESTOWN      CLEAR     72  61  68 N5        30.10R
$$




USA.gov is the U.S. government's official web portal to all federal, state and local government web resources and services.